Orlando, FL

2:29 PM EST on February 25, 2017 (GMT -0500)
Orlando International

Weather History for KMCO - October, 2012

Change the Weather History Date:

Tuesday, October 9, 2012

  Actual Average Record
Temperature  
Mean Temperature 80 °F 77 °F  
Max Temperature 88 °F 86 °F 95 °F (1922)
Min Temperature 71 °F 68 °F 50 °F (1921)
Degree Days  
Heating Degree Days 0 0  
Month to date heating degree days 0 0  
Since 1 July heating degree days 0 0  
Cooling Degree Days 15 12  
Month to date cooling degree days 143 118  
Year to date cooling degree days 3233 2994  
Growing Degree Days 29 (Base 50)    
Moisture  
Dew Point 72 °F    
Average Humidity 83    
Maximum Humidity 100    
Minimum Humidity 65    
Precipitation  
Precipitation T in 0.12 in 2.74 in (1900)
Month to date precipitation 1.87 1.26  
Year to date precipitation 39.23 43.93  
Sea Level Pressure  
Sea Level Pressure 30.02 in    
Wind  
Wind Speed 8 mph (NNE)    
Max Wind Speed 16 mph    
Max Gust Speed 20 mph    
Visibility 8 miles    
Events Rain    
T = Trace of Precipitation, MM = Missing Value Source: NWS Daily Summary

Daily Weather History Graph

Daily Weather History Graph

Search for Another Location

Airport or City:

Trip Planner

Search our weather history database for the weather conditions in past years. The results will help you decide how hot, cold, wet, or windy it might be!

Date:

Astronomy

Oct. 09, 2012 Rise Set
Actual Time 7:22 AM EDT 7:01 PM EDT
Civil Twilight 6:59 AM EDT 7:25 PM EDT
Nautical Twilight 6:31 AM EDT 7:52 PM EDT
Astronomical Twilight 6:04 AM EDT 8:19 PM EDT
Moon 1:26 AM EDT (10/9) 3:01 PM EDT (10/9)
Length of Visible Light 12h 25m
Length of Day
11h 38m
Last Quarter, 37% of the Moon is Illuminated
Oct 9
Last Quarter
Oct 15
New
Oct 21
First Quarter
Oct 29
Full
Nov 6
Last Quarter

Hourly Weather History & Observations

Time (EDT) Temp. Heat Index Dew Point Humidity Pressure Visibility Wind Dir Wind Speed Gust Speed Precip Events Conditions
12:53 AM 73.9 °F - 73.0 °F 97% 30.01 in 10.0 mi Calm Calm - N/A   Partly Cloudy
1:53 AM 73.9 °F - 73.0 °F 97% 30.01 in 10.0 mi Calm Calm - N/A   Scattered Clouds
2:53 AM 73.0 °F - 72.0 °F 96% 29.99 in 10.0 mi Calm Calm - N/A   Partly Cloudy
3:53 AM 72.0 °F - 71.1 °F 97% 29.98 in 10.0 mi Calm Calm - N/A   Clear
4:53 AM 72.0 °F - 71.1 °F 97% 29.99 in 10.0 mi Calm Calm - N/A   Partly Cloudy
5:53 AM 73.0 °F - 72.0 °F 96% 29.99 in 10.0 mi NW 4.6 mph - N/A   Partly Cloudy
6:12 AM 73.4 °F - 71.6 °F 94% 30.00 in 10.0 mi NW 5.8 mph - N/A   Partly Cloudy
6:53 AM 73.0 °F - 72.0 °F 96% 30.01 in 10.0 mi North 4.6 mph - N/A   Partly Cloudy
7:26 AM 73.4 °F - 71.6 °F 94% 30.02 in 3.0 mi North 4.6 mph - N/A   Mostly Cloudy
7:34 AM 73.4 °F - 71.6 °F 94% 30.02 in 1.0 mi North 8.1 mph - N/A   Mostly Cloudy
7:53 AM 73.0 °F - 73.0 °F 100% 30.02 in 1.0 mi North 8.1 mph - N/A   Overcast
8:16 AM 73.4 °F - 73.4 °F 100% 30.03 in 0.5 mi North 8.1 mph - N/A   Overcast
8:53 AM 73.9 °F - 73.0 °F 97% 30.04 in 1.0 mi North 10.4 mph - N/A   Overcast
9:01 AM 73.4 °F - 73.4 °F 100% 30.04 in 3.0 mi North 9.2 mph - N/A   Overcast
9:28 AM 75.2 °F - 73.4 °F 94% 30.05 in 10.0 mi NNE 6.9 mph - N/A   Mostly Cloudy
9:53 AM 78.1 °F - 73.9 °F 87% 30.04 in 10.0 mi North 8.1 mph - N/A   Mostly Cloudy
10:15 AM 78.8 °F - 73.4 °F 83% 30.05 in 10.0 mi North 8.1 mph - N/A   Scattered Clouds
10:53 AM 80.1 °F 84.5 °F 73.9 °F 81% 30.05 in 10.0 mi North 6.9 mph - N/A   Scattered Clouds
11:35 AM 82.4 °F 88.2 °F 73.4 °F 74% 30.05 in 10.0 mi North 4.6 mph - N/A   Mostly Cloudy
11:53 AM 82.0 °F 86.7 °F 72.0 °F 71% 30.04 in 10.0 mi North 8.1 mph - N/A   Mostly Cloudy
12:08 PM 80.6 °F 84.6 °F 71.6 °F 74% 30.05 in 10.0 mi North 5.8 mph - N/A   Scattered Clouds
12:53 PM 86.0 °F 93.0 °F 73.0 °F 65% 30.03 in 10.0 mi North 6.9 mph - N/A   Scattered Clouds
1:53 PM 86.0 °F 93.0 °F 73.0 °F 65% 30.01 in 10.0 mi North 6.9 mph - N/A   Mostly Cloudy
2:53 PM 84.0 °F 89.6 °F 72.0 °F 67% 30.00 in 10.0 mi NNE 11.5 mph - N/A   Mostly Cloudy
3:53 PM 82.0 °F 86.7 °F 72.0 °F 71% 30.00 in 10.0 mi NE 12.7 mph - 0.00 in Rain Light Rain
4:53 PM 82.0 °F 86.3 °F 71.1 °F 69% 29.99 in 10.0 mi NNE 10.4 mph - 0.00 in   Mostly Cloudy
5:19 PM 82.4 °F 87.2 °F 71.6 °F 70% 30.00 in 10.0 mi NNE 10.4 mph - N/A   Mostly Cloudy
5:33 PM 82.4 °F 87.2 °F 71.6 °F 70% 30.00 in 10.0 mi ENE 12.7 mph - N/A   Mostly Cloudy
5:53 PM 81.0 °F 84.9 °F 71.1 °F 72% 30.01 in 10.0 mi NE 12.7 mph - N/A   Mostly Cloudy
6:53 PM 79.0 °F - 70.0 °F 74% 30.02 in 10.0 mi NE 13.8 mph - N/A   Mostly Cloudy
7:53 PM 75.9 °F - 70.0 °F 82% 30.04 in 10.0 mi NE 10.4 mph - N/A   Mostly Cloudy
8:08 PM 75.2 °F - 69.8 °F 83% 30.04 in 10.0 mi NE 9.2 mph - N/A   Scattered Clouds
8:53 PM 73.9 °F - 69.1 °F 85% 30.05 in 10.0 mi NNE 10.4 mph - N/A   Partly Cloudy
9:53 PM 73.0 °F - 69.1 °F 87% 30.06 in 10.0 mi NNE 6.9 mph - N/A   Partly Cloudy
10:53 PM 72.0 °F - 69.1 °F 91% 30.08 in 10.0 mi NNE 6.9 mph - N/A   Partly Cloudy
11:53 PM 72.0 °F - 68.0 °F 87% 30.07 in 10.0 mi NNE 8.1 mph - N/A   Clear